Year,Month,Day,Hour,Minute,Value (Times are PST for temperature in C)
2015,06,27,00,00,17.00
2015,06,27,00,01,17.00
2015,06,27,00,02,16.90
2015,06,27,00,03,16.90
2015,06,27,00,04,16.90
2015,06,27,00,05,16.90
2015,06,27,00,06,16.80
2015,06,27,00,07,16.80
2015,06,27,00,08,16.80
2015,06,27,00,09,16.80
2015,06,27,00,10,16.80
2015,06,27,00,11,16.80
2015,06,27,00,12,16.70
2015,06,27,00,13,16.70
2015,06,27,00,14,16.70
2015,06,27,00,15,16.70
2015,06,27,00,16,16.70
2015,06,27,00,17,16.70
2015,06,27,00,18,16.60
2015,06,27,00,19,16.60
2015,06,27,00,20,16.60
2015,06,27,00,21,16.50
2015,06,27,00,22,16.50
2015,06,27,00,23,16.50
2015,06,27,00,24,16.50
2015,06,27,00,25,16.50
2015,06,27,00,26,16.60
2015,06,27,00,27,16.60
2015,06,27,00,28,16.60
2015,06,27,00,29,16.60
2015,06,27,00,30,16.60
2015,06,27,00,31,16.60
2015,06,27,00,32,16.60
2015,06,27,00,33,16.60
2015,06,27,00,34,16.50
2015,06,27,00,35,16.50
2015,06,27,00,36,16.50
2015,06,27,00,37,16.40
2015,06,27,00,38,16.40
2015,06,27,00,39,16.40
2015,06,27,00,40,16.40
2015,06,27,00,41,16.30
2015,06,27,00,42,16.30
2015,06,27,00,43,16.30
2015,06,27,00,44,16.30
2015,06,27,00,45,16.30
2015,06,27,00,46,16.30
2015,06,27,00,47,16.20
2015,06,27,00,48,16.20
2015,06,27,00,49,16.20
2015,06,27,00,50,16.20
2015,06,27,00,51,16.20
2015,06,27,00,52,16.10
2015,06,27,00,53,16.10
2015,06,27,00,54,16.20
2015,06,27,00,55,16.10
2015,06,27,00,56,16.10
2015,06,27,00,57,16.10
2015,06,27,00,58,16.10
2015,06,27,00,59,16.10
2015,06,27,01,00,16.20
2015,06,27,01,01,16.20
2015,06,27,01,02,16.10
2015,06,27,01,03,16.10
2015,06,27,01,04,16.10
2015,06,27,01,05,16.10
2015,06,27,01,06,16.10
2015,06,27,01,07,16.10
2015,06,27,01,08,16.10
2015,06,27,01,09,16.10
2015,06,27,01,10,16.10
2015,06,27,01,11,16.10
2015,06,27,01,12,16.10
2015,06,27,01,13,16.10
2015,06,27,01,14,16.10
2015,06,27,01,15,16.10
2015,06,27,01,16,16.10
2015,06,27,01,17,16.10
2015,06,27,01,18,16.10
2015,06,27,01,19,16.10
2015,06,27,01,20,16.10
2015,06,27,01,21,16.10
2015,06,27,01,22,16.10
2015,06,27,01,23,16.10
2015,06,27,01,24,16.00
2015,06,27,01,25,16.00
2015,06,27,01,26,16.10
2015,06,27,01,27,16.00
2015,06,27,01,28,16.00
2015,06,27,01,29,16.00
2015,06,27,01,30,16.00
2015,06,27,01,31,16.00
2015,06,27,01,32,15.90
2015,06,27,01,33,15.90
2015,06,27,01,34,15.90
2015,06,27,01,35,15.80
2015,06,27,01,36,15.80
2015,06,27,01,37,15.80
2015,06,27,01,38,15.70
2015,06,27,01,39,15.70
2015,06,27,01,40,15.70
2015,06,27,01,41,15.60
2015,06,27,01,42,15.60
2015,06,27,01,43,15.60
2015,06,27,01,44,15.60
2015,06,27,01,45,15.70
2015,06,27,01,46,15.70
2015,06,27,01,47,15.60
2015,06,27,01,48,15.60
2015,06,27,01,49,15.60
2015,06,27,01,50,15.60
2015,06,27,01,51,15.60
2015,06,27,01,52,15.60
2015,06,27,01,53,15.60
2015,06,27,01,54,15.60
2015,06,27,01,55,15.60
2015,06,27,01,56,15.60
2015,06,27,01,57,15.70
2015,06,27,01,58,15.70
2015,06,27,01,59,15.70
2015,06,27,02,00,15.60
2015,06,27,02,01,15.60
2015,06,27,02,02,15.60
2015,06,27,02,03,15.60
2015,06,27,02,04,15.70
2015,06,27,02,05,15.70
2015,06,27,02,06,15.70
2015,06,27,02,07,15.70
2015,06,27,02,08,15.70
2015,06,27,02,09,15.70
2015,06,27,02,10,15.70
2015,06,27,02,11,15.70
2015,06,27,02,12,15.70
2015,06,27,02,13,15.70
2015,06,27,02,14,15.70
2015,06,27,02,15,15.70
2015,06,27,02,16,15.70
2015,06,27,02,17,15.70
2015,06,27,02,18,15.60
2015,06,27,02,19,15.60
2015,06,27,02,20,15.60
2015,06,27,02,21,15.60
2015,06,27,02,22,15.60
2015,06,27,02,23,15.60
2015,06,27,02,24,15.60
2015,06,27,02,25,15.70
2015,06,27,02,26,15.70
2015,06,27,02,27,15.70
2015,06,27,02,28,15.60
2015,06,27,02,29,15.60
2015,06,27,02,30,15.60
2015,06,27,02,31,15.60
2015,06,27,02,32,15.60
2015,06,27,02,33,15.50
2015,06,27,02,34,15.50
2015,06,27,02,35,15.50
2015,06,27,02,36,15.50
2015,06,27,02,37,15.50
2015,06,27,02,38,15.50
2015,06,27,02,39,15.50
2015,06,27,02,40,15.40
2015,06,27,02,41,15.40
2015,06,27,02,42,15.40
2015,06,27,02,43,15.40
2015,06,27,02,44,15.40
2015,06,27,02,45,15.40
2015,06,27,02,46,15.30
2015,06,27,02,47,15.30
2015,06,27,02,48,15.30
2015,06,27,02,49,15.30
2015,06,27,02,50,15.20
2015,06,27,02,51,15.20
2015,06,27,02,52,15.20
2015,06,27,02,53,15.20
2015,06,27,02,54,15.20
2015,06,27,02,55,15.20
2015,06,27,02,56,15.20
2015,06,27,02,57,15.20
2015,06,27,02,58,15.20
2015,06,27,02,59,15.10
2015,06,27,03,00,15.10
2015,06,27,03,01,15.10
2015,06,27,03,02,15.10
2015,06,27,03,03,15.10
2015,06,27,03,04,15.10
2015,06,27,03,05,15.10
2015,06,27,03,06,15.20
2015,06,27,03,07,15.20
2015,06,27,03,08,15.20
2015,06,27,03,09,15.20
2015,06,27,03,10,15.20
2015,06,27,03,11,15.10
2015,06,27,03,12,15.10
2015,06,27,03,13,15.10
2015,06,27,03,14,15.10
2015,06,27,03,15,15.10
2015,06,27,03,16,15.20
2015,06,27,03,17,15.20
2015,06,27,03,18,15.20
2015,06,27,03,19,15.20
2015,06,27,03,20,15.20
2015,06,27,03,21,15.20
2015,06,27,03,22,15.10
2015,06,27,03,23,15.10
2015,06,27,03,24,15.10
2015,06,27,03,25,15.00
2015,06,27,03,26,15.10
2015,06,27,03,27,15.10
2015,06,27,03,28,15.10
2015,06,27,03,29,15.10
2015,06,27,03,30,15.10
2015,06,27,03,31,15.10
2015,06,27,03,32,15.10
2015,06,27,03,33,15.10
2015,06,27,03,34,15.10
2015,06,27,03,35,15.10
2015,06,27,03,36,15.00
2015,06,27,03,37,15.00
2015,06,27,03,38,15.00
2015,06,27,03,39,15.00
2015,06,27,03,40,15.10
2015,06,27,03,41,15.10
2015,06,27,03,42,15.10
2015,06,27,03,43,15.20
2015,06,27,03,44,15.20
2015,06,27,03,45,15.20
2015,06,27,03,46,15.20
2015,06,27,03,47,15.40
2015,06,27,03,48,15.60
2015,06,27,03,49,15.80
2015,06,27,03,50,15.90
2015,06,27,03,51,16.00
2015,06,27,03,52,16.00
2015,06,27,03,53,16.00
2015,06,27,03,54,16.00
2015,06,27,03,55,16.10
2015,06,27,03,56,16.10
2015,06,27,03,57,16.10
2015,06,27,03,58,16.10
2015,06,27,03,59,16.10
2015,06,27,04,00,16.20
2015,06,27,04,01,16.20
2015,06,27,04,02,16.10
2015,06,27,04,03,16.10
2015,06,27,04,04,16.10
2015,06,27,04,05,16.10
2015,06,27,04,06,16.00
2015,06,27,04,07,15.90
2015,06,27,04,08,15.90
2015,06,27,04,09,15.90
2015,06,27,04,10,15.90
2015,06,27,04,11,15.90
2015,06,27,04,12,15.80
2015,06,27,04,13,15.80
2015,06,27,04,14,15.80
2015,06,27,04,15,15.80
2015,06,27,04,16,15.70
2015,06,27,04,17,15.70
2015,06,27,04,18,15.70
2015,06,27,04,19,15.60
2015,06,27,04,20,15.60
2015,06,27,04,21,15.60
2015,06,27,04,22,15.50
2015,06,27,04,23,15.50
2015,06,27,04,24,15.50
2015,06,27,04,25,15.50
2015,06,27,04,26,15.50
2015,06,27,04,27,15.60
2015,06,27,04,28,15.60
2015,06,27,04,29,15.60
2015,06,27,04,30,15.60
2015,06,27,04,31,15.70
2015,06,27,04,32,15.70
2015,06,27,04,33,15.70
2015,06,27,04,34,15.70
2015,06,27,04,35,15.70
2015,06,27,04,36,15.70
2015,06,27,04,37,15.70
2015,06,27,04,38,15.70
2015,06,27,04,39,15.70
2015,06,27,04,40,15.70
2015,06,27,04,41,15.70
2015,06,27,04,42,15.70
2015,06,27,04,43,15.70
2015,06,27,04,44,15.70
2015,06,27,04,45,15.60
2015,06,27,04,46,15.60
2015,06,27,04,47,15.60
2015,06,27,04,48,15.60
2015,06,27,04,49,15.50
2015,06,27,04,50,15.50
2015,06,27,04,51,15.50
2015,06,27,04,52,15.50
2015,06,27,04,53,15.50
2015,06,27,04,54,15.50
2015,06,27,04,55,15.60
2015,06,27,04,56,15.60
2015,06,27,04,57,15.50
2015,06,27,04,58,15.50
2015,06,27,04,59,15.50
2015,06,27,05,00,15.40
2015,06,27,05,01,15.40
2015,06,27,05,02,15.40
2015,06,27,05,03,15.50
2015,06,27,05,04,15.80
2015,06,27,05,05,15.90
2015,06,27,05,06,16.00
2015,06,27,05,07,16.10
2015,06,27,05,08,16.20
2015,06,27,05,09,16.30
2015,06,27,05,10,16.30
2015,06,27,05,11,16.40
2015,06,27,05,12,16.40
2015,06,27,05,13,16.50
2015,06,27,05,14,16.60
2015,06,27,05,15,16.70
2015,06,27,05,16,16.90
2015,06,27,05,17,17.00
2015,06,27,05,18,17.30
2015,06,27,05,19,17.40
2015,06,27,05,20,17.50
2015,06,27,05,21,17.60
2015,06,27,05,22,17.70
2015,06,27,05,23,17.80
2015,06,27,05,24,17.70
2015,06,27,05,25,17.70
2015,06,27,05,26,17.70
2015,06,27,05,27,17.70
2015,06,27,05,28,17.70
2015,06,27,05,29,17.80
2015,06,27,05,30,17.80
2015,06,27,05,31,17.70
2015,06,27,05,32,17.70
2015,06,27,05,33,17.60
2015,06,27,05,34,17.50
2015,06,27,05,35,17.40
2015,06,27,05,36,17.40
2015,06,27,05,37,17.40
2015,06,27,05,38,17.30
2015,06,27,05,39,17.30
2015,06,27,05,40,17.30
2015,06,27,05,41,17.30
2015,06,27,05,42,17.30
2015,06,27,05,43,17.30
2015,06,27,05,44,17.30
2015,06,27,05,45,17.30
2015,06,27,05,46,17.40
2015,06,27,05,47,17.40
2015,06,27,05,48,17.40
2015,06,27,05,49,17.50
2015,06,27,05,50,17.60
2015,06,27,05,51,17.60
2015,06,27,05,52,17.70
2015,06,27,05,53,17.70
2015,06,27,05,54,17.80
2015,06,27,05,55,17.90
2015,06,27,05,56,18.00
2015,06,27,05,57,18.10
2015,06,27,05,58,18.20
2015,06,27,05,59,18.30
2015,06,27,06,00,18.40
2015,06,27,06,01,18.40
2015,06,27,06,02,18.50
2015,06,27,06,03,18.60
2015,06,27,06,04,18.60
2015,06,27,06,05,18.60
2015,06,27,06,06,18.60
2015,06,27,06,07,18.60
2015,06,27,06,08,18.60
2015,06,27,06,09,18.70
2015,06,27,06,10,18.70
2015,06,27,06,11,18.70
2015,06,27,06,12,18.70
2015,06,27,06,13,18.70
2015,06,27,06,14,18.70
2015,06,27,06,15,18.70
2015,06,27,06,16,18.70
2015,06,27,06,17,18.70
2015,06,27,06,18,18.60
2015,06,27,06,19,18.60
2015,06,27,06,20,18.60
2015,06,27,06,21,18.50
2015,06,27,06,22,18.50
2015,06,27,06,23,18.40
2015,06,27,06,24,18.40
2015,06,27,06,25,18.40
2015,06,27,06,26,18.40
2015,06,27,06,27,18.40
2015,06,27,06,28,18.40
2015,06,27,06,29,18.40
2015,06,27,06,30,18.40
2015,06,27,06,31,18.40
2015,06,27,06,32,18.40
2015,06,27,06,33,18.40
2015,06,27,06,34,18.40
2015,06,27,06,35,18.40
2015,06,27,06,36,18.50
2015,06,27,06,37,18.60
2015,06,27,06,38,18.60
2015,06,27,06,39,18.60
2015,06,27,06,40,18.60
2015,06,27,06,41,18.60
2015,06,27,06,42,18.70
2015,06,27,06,43,18.70
2015,06,27,06,44,18.70
2015,06,27,06,45,18.70
2015,06,27,06,46,18.80
2015,06,27,06,47,18.80
2015,06,27,06,48,18.80
2015,06,27,06,49,18.80
2015,06,27,06,50,18.80
2015,06,27,06,51,18.80
2015,06,27,06,52,18.80
2015,06,27,06,53,18.90
2015,06,27,06,54,18.90
2015,06,27,06,55,18.90
2015,06,27,06,56,19.00
2015,06,27,06,57,19.10
2015,06,27,06,58,19.10
2015,06,27,06,59,19.20
2015,06,27,07,00,19.20
2015,06,27,07,01,19.20
2015,06,27,07,02,19.30
2015,06,27,07,03,19.30
2015,06,27,07,04,19.30
2015,06,27,07,05,19.40
2015,06,27,07,06,19.40
2015,06,27,07,07,19.40
2015,06,27,07,08,19.50
2015,06,27,07,09,19.50
2015,06,27,07,10,19.50
2015,06,27,07,11,19.60
2015,06,27,07,12,19.60
2015,06,27,07,13,19.60
2015,06,27,07,14,19.60
2015,06,27,07,15,19.60
2015,06,27,07,16,19.60
2015,06,27,07,17,19.60
2015,06,27,07,18,19.70
2015,06,27,07,19,19.70
2015,06,27,07,20,19.70
2015,06,27,07,21,19.70
2015,06,27,07,22,19.70
2015,06,27,07,23,19.80
2015,06,27,07,24,19.80
2015,06,27,07,25,19.80
2015,06,27,07,26,19.80
2015,06,27,07,27,19.80
2015,06,27,07,28,19.80
2015,06,27,07,29,19.80
2015,06,27,07,30,19.80
2015,06,27,07,31,19.80
2015,06,27,07,32,19.80
2015,06,27,07,33,19.80
2015,06,27,07,34,19.80
2015,06,27,07,35,19.80
2015,06,27,07,36,19.80
2015,06,27,07,37,19.80
2015,06,27,07,38,19.80
2015,06,27,07,39,19.80
2015,06,27,07,40,19.90
2015,06,27,07,41,19.90
2015,06,27,07,42,19.90
2015,06,27,07,43,20.00
2015,06,27,07,44,20.00
2015,06,27,07,45,20.00
2015,06,27,07,46,20.10
2015,06,27,07,47,20.10
2015,06,27,07,48,20.10
2015,06,27,07,49,20.10
2015,06,27,07,50,20.10
2015,06,27,07,51,20.10
2015,06,27,07,52,20.10
2015,06,27,07,53,20.10
2015,06,27,07,54,20.10
2015,06,27,07,55,20.10
2015,06,27,07,56,20.20
2015,06,27,07,57,20.20
2015,06,27,07,58,20.20
2015,06,27,07,59,20.30
2015,06,27,08,00,20.30
2015,06,27,08,01,20.30
2015,06,27,08,02,20.30
2015,06,27,08,03,20.30
2015,06,27,08,04,20.30
2015,06,27,08,05,20.30
2015,06,27,08,06,20.30
2015,06,27,08,07,20.30
2015,06,27,08,08,20.30
2015,06,27,08,09,20.30
2015,06,27,08,10,20.30
2015,06,27,08,11,20.30
2015,06,27,08,12,20.40
2015,06,27,08,13,20.40
2015,06,27,08,14,20.40
2015,06,27,08,15,20.40
2015,06,27,08,16,20.40
2015,06,27,08,17,20.40
2015,06,27,08,18,20.50
2015,06,27,08,19,20.50
2015,06,27,08,20,20.50
2015,06,27,08,21,20.50
2015,06,27,08,22,20.50
2015,06,27,08,23,20.50
2015,06,27,08,24,20.60
2015,06,27,08,25,20.60
2015,06,27,08,26,20.60
2015,06,27,08,27,20.60
2015,06,27,08,28,20.70
2015,06,27,08,29,20.70
2015,06,27,08,30,20.70
2015,06,27,08,31,20.70
2015,06,27,08,32,20.70
2015,06,27,08,33,20.70
2015,06,27,08,34,20.70
2015,06,27,08,35,20.70
2015,06,27,08,36,20.60
2015,06,27,08,37,20.60
2015,06,27,08,38,20.60
2015,06,27,08,39,20.60
2015,06,27,08,40,20.60
2015,06,27,08,41,20.70
2015,06,27,08,42,20.70
2015,06,27,08,43,20.70
2015,06,27,08,44,20.70
2015,06,27,08,45,20.70
2015,06,27,08,46,20.70
2015,06,27,08,47,20.60
2015,06,27,08,48,20.60
2015,06,27,08,49,20.70
2015,06,27,08,50,20.70
2015,06,27,08,51,20.70
2015,06,27,08,52,20.80
2015,06,27,08,53,20.80
2015,06,27,08,54,20.90
2015,06,27,08,55,21.00
2015,06,27,08,56,21.10
2015,06,27,08,57,21.20
2015,06,27,08,58,21.30
2015,06,27,08,59,21.30
2015,06,27,09,00,21.40
2015,06,27,09,01,21.40
2015,06,27,09,02,21.40
2015,06,27,09,03,21.40
2015,06,27,09,04,21.40
2015,06,27,09,05,21.40
2015,06,27,09,06,21.40
2015,06,27,09,07,21.50
2015,06,27,09,08,21.60
2015,06,27,09,09,21.70
2015,06,27,09,10,21.70
2015,06,27,09,11,21.70
2015,06,27,09,12,21.70
2015,06,27,09,13,21.70
2015,06,27,09,14,21.80
2015,06,27,09,15,21.80
2015,06,27,09,16,21.80
2015,06,27,09,17,21.80
2015,06,27,09,18,21.90
2015,06,27,09,19,21.90
2015,06,27,09,20,21.90
2015,06,27,09,21,21.80
2015,06,27,09,22,21.60
2015,06,27,09,23,21.50
2015,06,27,09,24,21.40
2015,06,27,09,25,21.30
2015,06,27,09,26,21.30
2015,06,27,09,27,21.30
2015,06,27,09,28,21.30
2015,06,27,09,29,21.30
2015,06,27,09,30,21.40
2015,06,27,09,31,21.50
2015,06,27,09,32,21.50
2015,06,27,09,33,21.60
2015,06,27,09,34,21.60
2015,06,27,09,35,21.60
2015,06,27,09,36,21.70
2015,06,27,09,37,21.80
2015,06,27,09,38,21.80
2015,06,27,09,39,21.80
2015,06,27,09,40,21.80
2015,06,27,09,41,21.70
2015,06,27,09,42,21.60
2015,06,27,09,43,21.50
2015,06,27,09,44,21.40
2015,06,27,09,45,21.40
2015,06,27,09,46,21.50
2015,06,27,09,47,21.50
2015,06,27,09,48,21.50
2015,06,27,09,49,21.50
2015,06,27,09,50,21.40
2015,06,27,09,51,21.40
2015,06,27,09,52,21.40
2015,06,27,09,53,21.40
2015,06,27,09,54,21.20
2015,06,27,09,55,21.10
2015,06,27,09,56,21.00
2015,06,27,09,57,21.00
2015,06,27,09,58,21.00
2015,06,27,09,59,21.10
2015,06,27,10,00,21.00
2015,06,27,10,01,21.00
2015,06,27,10,02,21.10
2015,06,27,10,03,21.00
2015,06,27,10,04,21.00
2015,06,27,10,05,20.90
2015,06,27,10,06,20.80
2015,06,27,10,07,20.80
2015,06,27,10,08,20.80
2015,06,27,10,09,20.80
2015,06,27,10,10,20.80
2015,06,27,10,11,20.80
2015,06,27,10,12,20.80
2015,06,27,10,13,20.80
2015,06,27,10,14,20.80
2015,06,27,10,15,20.70
2015,06,27,10,16,20.70
2015,06,27,10,17,20.70
2015,06,27,10,18,20.60
2015,06,27,10,19,20.60
2015,06,27,10,20,20.60
2015,06,27,10,21,20.60
2015,06,27,10,22,20.60
2015,06,27,10,23,20.70
2015,06,27,10,24,20.70
2015,06,27,10,25,20.80
2015,06,27,10,26,20.80
2015,06,27,10,27,20.80
2015,06,27,10,28,20.90
2015,06,27,10,29,20.90
2015,06,27,10,30,20.90
2015,06,27,10,31,20.90
2015,06,27,10,32,20.90
2015,06,27,10,33,21.00
2015,06,27,10,34,21.00
2015,06,27,10,35,20.90
2015,06,27,10,36,20.90
2015,06,27,10,37,20.90
2015,06,27,10,38,20.80
2015,06,27,10,39,20.80
2015,06,27,10,40,20.80
2015,06,27,10,41,20.80
2015,06,27,10,42,20.90
2015,06,27,10,43,20.90
2015,06,27,10,44,21.00
2015,06,27,10,45,21.10
2015,06,27,10,46,21.20
2015,06,27,10,47,21.20
2015,06,27,10,48,21.30
2015,06,27,10,49,21.30
2015,06,27,10,50,21.40
2015,06,27,10,51,21.40
2015,06,27,10,52,21.40
2015,06,27,10,53,21.40
2015,06,27,10,54,21.50
2015,06,27,10,55,21.50
2015,06,27,10,56,21.60
2015,06,27,10,57,21.80
2015,06,27,10,58,21.90
2015,06,27,10,59,22.00
2015,06,27,11,00,22.20
2015,06,27,11,01,22.40
2015,06,27,11,02,22.50
2015,06,27,11,03,22.40
2015,06,27,11,04,22.40
2015,06,27,11,05,22.40
2015,06,27,11,06,22.50
2015,06,27,11,07,22.60
2015,06,27,11,08,22.70
2015,06,27,11,09,22.80
2015,06,27,11,10,22.80
2015,06,27,11,11,22.90
2015,06,27,11,12,22.90
2015,06,27,11,13,22.90
2015,06,27,11,14,22.90
2015,06,27,11,15,22.90
2015,06,27,11,16,23.00
2015,06,27,11,17,23.10
2015,06,27,11,18,23.00
2015,06,27,11,19,22.90
2015,06,27,11,20,22.80
2015,06,27,11,21,22.70
2015,06,27,11,22,22.60
2015,06,27,11,23,22.40
2015,06,27,11,24,22.40
2015,06,27,11,25,22.40
2015,06,27,11,26,22.40
2015,06,27,11,27,22.50
2015,06,27,11,28,22.40
2015,06,27,11,29,22.40
2015,06,27,11,30,22.30
2015,06,27,11,31,22.30
2015,06,27,11,32,22.30
2015,06,27,11,33,22.30
2015,06,27,11,34,22.30
2015,06,27,11,35,22.40
2015,06,27,11,36,22.50
2015,06,27,11,37,22.60
2015,06,27,11,38,22.70
2015,06,27,11,39,22.80
2015,06,27,11,40,22.80
2015,06,27,11,41,22.80
2015,06,27,11,42,22.90
2015,06,27,11,43,23.00
2015,06,27,11,44,23.20
2015,06,27,11,45,23.30
2015,06,27,11,46,23.40
2015,06,27,11,47,23.50
2015,06,27,11,48,23.60
2015,06,27,11,49,23.70
2015,06,27,11,50,23.70
2015,06,27,11,51,23.80
2015,06,27,11,52,23.70
2015,06,27,11,53,23.80
2015,06,27,11,54,23.80
2015,06,27,11,55,23.80
2015,06,27,11,56,23.80
2015,06,27,11,57,23.80
2015,06,27,11,58,23.70
2015,06,27,11,59,23.60
2015,06,27,12,00,23.50
2015,06,27,12,01,23.50
2015,06,27,12,02,23.60
2015,06,27,12,03,23.60
2015,06,27,12,04,23.70
2015,06,27,12,05,23.60
2015,06,27,12,06,23.50
2015,06,27,12,07,23.60
2015,06,27,12,08,23.80
2015,06,27,12,09,23.80
2015,06,27,12,10,23.70
2015,06,27,12,11,23.60
2015,06,27,12,12,23.50
2015,06,27,12,13,23.30
2015,06,27,12,14,23.20
2015,06,27,12,15,23.10
2015,06,27,12,16,23.00
2015,06,27,12,17,22.90
2015,06,27,12,18,22.80
2015,06,27,12,19,22.80
2015,06,27,12,20,22.90
2015,06,27,12,21,23.10
2015,06,27,12,22,23.30
2015,06,27,12,23,23.40
2015,06,27,12,24,23.50
2015,06,27,12,25,23.70
2015,06,27,12,26,23.80
2015,06,27,12,27,23.80
2015,06,27,12,28,23.70
2015,06,27,12,29,23.70
2015,06,27,12,30,23.70
2015,06,27,12,31,23.80
2015,06,27,12,32,23.80
2015,06,27,12,33,23.80
2015,06,27,12,34,23.80
2015,06,27,12,35,23.80
2015,06,27,12,36,23.70
2015,06,27,12,37,23.80
2015,06,27,12,38,23.90
2015,06,27,12,39,24.10
2015,06,27,12,40,24.20
2015,06,27,12,41,24.30
2015,06,27,12,42,24.40
2015,06,27,12,43,24.40
2015,06,27,12,44,24.40
2015,06,27,12,45,24.40
2015,06,27,12,46,24.40
2015,06,27,12,47,24.30
2015,06,27,12,48,24.30
2015,06,27,12,49,24.30
2015,06,27,12,50,24.30
2015,06,27,12,51,24.40
2015,06,27,12,52,24.30
2015,06,27,12,53,24.30
2015,06,27,12,54,24.30
2015,06,27,12,55,24.40
2015,06,27,12,56,24.40
2015,06,27,12,57,24.30
2015,06,27,12,58,24.20
2015,06,27,12,59,24.20
2015,06,27,13,00,24.10
2015,06,27,13,01,24.20
2015,06,27,13,02,24.30
2015,06,27,13,03,24.40
2015,06,27,13,04,24.40
2015,06,27,13,05,24.50
2015,06,27,13,06,24.50
2015,06,27,13,07,24.60
2015,06,27,13,08,24.60
2015,06,27,13,09,24.70
2015,06,27,13,10,24.70
2015,06,27,13,11,24.70
2015,06,27,13,12,24.80
2015,06,27,13,13,24.90
2015,06,27,13,14,24.90
2015,06,27,13,15,25.00
2015,06,27,13,16,25.10
2015,06,27,13,17,25.20
2015,06,27,13,18,25.30
2015,06,27,13,19,25.40
2015,06,27,13,20,25.40
2015,06,27,13,21,25.40
2015,06,27,13,22,25.30
2015,06,27,13,23,25.20
2015,06,27,13,24,25.10
2015,06,27,13,25,25.00
2015,06,27,13,26,24.90
2015,06,27,13,27,24.90
2015,06,27,13,28,24.90
2015,06,27,13,29,25.00
2015,06,27,13,30,25.10
2015,06,27,13,31,25.10
2015,06,27,13,32,25.00
2015,06,27,13,33,25.00
2015,06,27,13,34,25.00
2015,06,27,13,35,25.10
2015,06,27,13,36,25.20
2015,06,27,13,37,25.20
2015,06,27,13,38,25.30
2015,06,27,13,39,25.40
2015,06,27,13,40,25.50
2015,06,27,13,41,25.60
2015,06,27,13,42,25.60
2015,06,27,13,43,25.60
2015,06,27,13,44,25.70
2015,06,27,13,45,25.80
2015,06,27,13,46,25.60
2015,06,27,13,47,25.50
2015,06,27,13,48,25.40
2015,06,27,13,49,25.20
2015,06,27,13,50,25.10
2015,06,27,13,51,25.00
2015,06,27,13,52,24.90
2015,06,27,13,53,24.80
2015,06,27,13,54,24.80
2015,06,27,13,55,24.80
2015,06,27,13,56,24.70
2015,06,27,13,57,24.80
2015,06,27,13,58,24.90
2015,06,27,13,59,25.00
2015,06,27,14,00,25.10
2015,06,27,14,01,25.10
2015,06,27,14,02,25.10
2015,06,27,14,03,25.10
2015,06,27,14,04,25.20
2015,06,27,14,05,25.20
2015,06,27,14,06,25.40
2015,06,27,14,07,25.50
2015,06,27,14,08,25.60
2015,06,27,14,09,25.60
2015,06,27,14,10,25.70
2015,06,27,14,11,25.60
2015,06,27,14,12,25.60
2015,06,27,14,13,25.60
2015,06,27,14,14,25.60
2015,06,27,14,15,25.60
2015,06,27,14,16,25.50
2015,06,27,14,17,25.50
2015,06,27,14,18,25.60
2015,06,27,14,19,25.70
2015,06,27,14,20,25.80
2015,06,27,14,21,25.80
2015,06,27,14,22,25.90
2015,06,27,14,23,25.90
2015,06,27,14,24,25.80
2015,06,27,14,25,25.60
2015,06,27,14,26,25.40
2015,06,27,14,27,25.30
2015,06,27,14,28,25.20
2015,06,27,14,29,25.20
2015,06,27,14,30,25.30
2015,06,27,14,31,25.30
2015,06,27,14,32,25.40
2015,06,27,14,33,25.40
2015,06,27,14,34,25.30
2015,06,27,14,35,25.40
2015,06,27,14,36,25.40
2015,06,27,14,37,25.40
2015,06,27,14,38,25.40
2015,06,27,14,39,25.40
2015,06,27,14,40,25.30
2015,06,27,14,41,25.40
2015,06,27,14,42,25.50
2015,06,27,14,43,25.50
2015,06,27,14,44,25.60
2015,06,27,14,45,25.60
2015,06,27,14,46,25.60
2015,06,27,14,47,25.70
2015,06,27,14,48,25.60
2015,06,27,14,49,25.70
2015,06,27,14,50,25.80
2015,06,27,14,51,25.80
2015,06,27,14,52,25.90
2015,06,27,14,53,25.90
2015,06,27,14,54,25.90
2015,06,27,14,55,26.00
2015,06,27,14,56,26.00
2015,06,27,14,57,26.00
2015,06,27,14,58,26.10
2015,06,27,14,59,26.00
2015,06,27,15,00,26.00
2015,06,27,15,01,26.00
2015,06,27,15,02,25.90
2015,06,27,15,03,25.80
2015,06,27,15,04,25.70
2015,06,27,15,05,25.60
2015,06,27,15,06,25.70
2015,06,27,15,07,25.70
2015,06,27,15,08,25.70
2015,06,27,15,09,25.80
2015,06,27,15,10,25.80
2015,06,27,15,11,25.80
2015,06,27,15,12,25.80
2015,06,27,15,13,26.00
2015,06,27,15,14,26.10
2015,06,27,15,15,26.10
2015,06,27,15,16,26.10
2015,06,27,15,17,26.10
2015,06,27,15,18,26.10
2015,06,27,15,19,26.10
2015,06,27,15,20,26.10
2015,06,27,15,21,26.10
2015,06,27,15,22,26.10
2015,06,27,15,23,26.10
2015,06,27,15,24,26.10
2015,06,27,15,25,26.10
2015,06,27,15,26,26.00
2015,06,27,15,27,25.90
2015,06,27,15,28,25.90
2015,06,27,15,29,25.90
2015,06,27,15,30,25.90
2015,06,27,15,31,25.90
2015,06,27,15,32,25.90
2015,06,27,15,33,25.90
2015,06,27,15,34,25.90
2015,06,27,15,35,26.00
2015,06,27,15,36,26.10
2015,06,27,15,37,26.20
2015,06,27,15,38,26.30
2015,06,27,15,39,26.50
2015,06,27,15,40,26.70
2015,06,27,15,41,26.80
2015,06,27,15,42,26.80
2015,06,27,15,43,26.80
2015,06,27,15,44,26.80
2015,06,27,15,45,26.80
2015,06,27,15,46,26.70
2015,06,27,15,47,26.60
2015,06,27,15,48,26.60
2015,06,27,15,49,26.50
2015,06,27,15,50,26.40
2015,06,27,15,51,26.30
2015,06,27,15,52,26.20
2015,06,27,15,53,26.20
2015,06,27,15,54,26.30
2015,06,27,15,55,26.40
2015,06,27,15,56,26.50
2015,06,27,15,57,26.60
2015,06,27,15,58,26.70
2015,06,27,15,59,26.80
2015,06,27,16,00,26.90
2015,06,27,16,01,26.90
2015,06,27,16,02,27.00
2015,06,27,16,03,27.10
2015,06,27,16,04,27.20
2015,06,27,16,05,27.20
2015,06,27,16,06,27.20
2015,06,27,16,07,27.10
2015,06,27,16,08,27.00
2015,06,27,16,09,26.90
2015,06,27,16,10,26.80
2015,06,27,16,11,26.90
2015,06,27,16,12,27.00
2015,06,27,16,13,27.10
2015,06,27,16,14,27.20
2015,06,27,16,15,27.30
2015,06,27,16,16,27.40
2015,06,27,16,17,27.50
2015,06,27,16,18,27.40
2015,06,27,16,19,27.30
2015,06,27,16,20,27.10
2015,06,27,16,21,27.00
2015,06,27,16,22,27.00
2015,06,27,16,23,27.00
2015,06,27,16,24,27.10
2015,06,27,16,25,27.10
2015,06,27,16,26,27.20
2015,06,27,16,27,27.40
2015,06,27,16,28,27.50
2015,06,27,16,29,27.80
2015,06,27,16,30,28.00
2015,06,27,16,31,28.20
2015,06,27,16,32,28.30
2015,06,27,16,33,28.40
2015,06,27,16,34,28.50
2015,06,27,16,35,28.50
2015,06,27,16,36,28.60
2015,06,27,16,37,28.60
2015,06,27,16,38,28.60
2015,06,27,16,39,28.60
2015,06,27,16,40,28.70
2015,06,27,16,41,28.70
2015,06,27,16,42,28.50
2015,06,27,16,43,28.40
2015,06,27,16,44,28.30
2015,06,27,16,45,28.30
2015,06,27,16,46,28.20
2015,06,27,16,47,28.20
2015,06,27,16,48,28.20
2015,06,27,16,49,28.20
2015,06,27,16,50,28.10
2015,06,27,16,51,28.20
2015,06,27,16,52,28.20
2015,06,27,16,53,28.20
2015,06,27,16,54,28.10
2015,06,27,16,55,28.10
2015,06,27,16,56,27.90
2015,06,27,16,57,27.80
2015,06,27,16,58,27.80
2015,06,27,16,59,27.70
2015,06,27,17,00,27.80
2015,06,27,17,01,27.80
2015,06,27,17,02,27.90
2015,06,27,17,03,28.00
2015,06,27,17,04,28.00
2015,06,27,17,05,28.10
2015,06,27,17,06,28.10
2015,06,27,17,07,28.00
2015,06,27,17,08,28.10
2015,06,27,17,09,28.00
2015,06,27,17,10,28.10
2015,06,27,17,11,28.00
2015,06,27,17,12,28.00
2015,06,27,17,13,28.00
2015,06,27,17,14,28.00
2015,06,27,17,15,28.00
2015,06,27,17,16,28.00
2015,06,27,17,17,28.10
2015,06,27,17,18,28.10
2015,06,27,17,19,28.10